Time,TemperatureF,DewpointF,PressureIn,WindDirection,WindDirectionDegrees,WindSpeedMPH,WindSpeedGustMPH,Humidity,HourlyPrecipIn,Conditions,Clouds,dailyrainin,SoftwareType,DateUTC
2013-05-15 00:02:00,50.7,39.4,29.83,SSE,151,2.0,6.0,65,0.00,,,0.00,meteohub,2013-05-15 06:02:00,
2013-05-15 00:07:00,50.7,39.4,29.83,South,183,2.0,6.0,65,0.00,,,0.00,meteohub,2013-05-15 06:07:00,
2013-05-15 00:12:00,50.5,39.2,29.83,SE,142,3.0,6.0,65,0.00,,,0.00,meteohub,2013-05-15 06:12:00,
2013-05-15 00:17:00,50.5,39.2,29.83,SSE,159,3.0,5.0,65,0.00,,,0.00,meteohub,2013-05-15 06:17:00,
2013-05-15 00:22:00,50.4,39.0,29.83,South,177,3.0,6.0,65,0.00,,,0.00,meteohub,2013-05-15 06:22:00,
2013-05-15 00:27:00,50.0,38.7,29.83,SW,233,2.0,6.0,65,0.00,,,0.00,meteohub,2013-05-15 06:27:00,
2013-05-15 00:32:00,49.6,38.7,29.83,SW,217,1.0,6.0,66,0.00,,,0.00,meteohub,2013-05-15 06:32:00,
2013-05-15 00:37:00,49.5,38.7,29.83,SE,132,1.0,5.0,66,0.00,,,0.00,meteohub,2013-05-15 06:37:00,
2013-05-15 00:42:00,49.1,38.3,29.83,SSW,201,2.0,5.0,66,0.00,,,0.00,meteohub,2013-05-15 06:42:00,
2013-05-15 00:47:00,49.3,38.5,29.83,South,169,3.0,3.0,66,0.00,,,0.00,meteohub,2013-05-15 06:47:00,
2013-05-15 00:52:00,49.3,37.9,29.83,SW,228,1.0,5.0,65,0.00,,,0.00,meteohub,2013-05-15 06:52:00,
2013-05-15 00:57:00,49.6,37.9,29.83,SW,221,5.0,5.0,64,0.00,,,0.00,meteohub,2013-05-15 06:57:00,
2013-05-15 01:02:00,49.6,37.6,29.83,SSE,153,2.0,8.0,63,0.00,,,0.00,meteohub,2013-05-15 07:02:00,
2013-05-15 01:08:00,49.6,37.6,29.83,WSW,245,1.0,8.0,63,0.00,,,0.00,meteohub,2013-05-15 07:08:00,
2013-05-15 01:13:00,49.1,37.0,29.83,WSW,255,3.0,8.0,63,0.00,,,0.00,meteohub,2013-05-15 07:13:00,
2013-05-15 01:18:00,48.9,36.9,29.82,WNW,290,4.0,6.0,63,0.00,,,0.00,meteohub,2013-05-15 07:18:00,
2013-05-15 01:23:00,48.9,36.1,29.82,WSW,255,3.0,5.0,61,0.00,,,0.00,meteohub,2013-05-15 07:23:00,
2013-05-15 01:28:00,48.7,36.3,29.82,WNW,288,3.0,6.0,62,0.00,,,0.00,meteohub,2013-05-15 07:28:00,
2013-05-15 01:33:00,48.4,36.3,29.82,WNW,295,2.0,6.0,63,0.00,,,0.00,meteohub,2013-05-15 07:33:00,
2013-05-15 01:38:00,48.4,37.2,29.82,ESE,108,0.0,6.0,65,0.00,,,0.00,meteohub,2013-05-15 07:38:00,
2013-05-15 01:43:00,48.0,37.2,29.81,SE,124,0.0,5.0,66,0.00,,,0.00,meteohub,2013-05-15 07:43:00,
2013-05-15 01:48:00,47.8,37.8,29.81,NW,318,1.0,4.0,68,0.00,,,0.00,meteohub,2013-05-15 07:48:00,
2013-05-15 01:53:00,47.8,37.8,29.81,NNW,330,3.0,3.0,68,0.00,,,0.00,meteohub,2013-05-15 07:53:00,
2013-05-15 01:58:00,47.7,37.2,29.80,NW,322,2.0,4.0,67,0.00,,,0.00,meteohub,2013-05-15 07:58:00,
2013-05-15 02:03:00,47.1,37.8,29.80,NW,326,6.0,6.0,70,0.00,,,0.00,meteohub,2013-05-15 08:03:00,
2013-05-15 02:08:00,46.9,38.3,29.80,NNW,347,5.0,7.0,72,0.00,,,0.00,meteohub,2013-05-15 08:08:00,
2013-05-15 02:13:00,46.9,38.3,29.80,NNW,335,5.0,9.0,72,0.00,,,0.00,meteohub,2013-05-15 08:13:00,
2013-05-15 02:18:00,46.6,37.4,29.79,NW,320,7.0,9.0,70,0.00,,,0.00,meteohub,2013-05-15 08:18:00,
2013-05-15 02:23:00,46.8,37.9,29.79,NW,324,8.0,9.0,71,0.00,,,0.00,meteohub,2013-05-15 08:23:00,
2013-05-15 02:29:00,46.8,37.6,29.79,NNW,329,5.0,11.0,70,0.00,,,0.00,meteohub,2013-05-15 08:29:00,
2013-05-15 02:34:00,46.8,37.2,29.79,NW,326,4.0,11.0,69,0.00,,,0.00,meteohub,2013-05-15 08:34:00,
2013-05-15 02:39:00,46.8,37.6,29.79,NW,326,6.0,10.0,70,0.00,,,0.00,meteohub,2013-05-15 08:39:00,
2013-05-15 02:44:00,46.9,37.6,29.79,NW,318,8.0,10.0,70,0.00,,,0.00,meteohub,2013-05-15 08:44:00,
2013-05-15 02:49:00,46.9,37.6,29.79,NNW,329,7.0,9.0,70,0.00,,,0.00,meteohub,2013-05-15 08:49:00,
2013-05-15 02:54:00,46.9,37.6,29.79,NNW,328,5.0,9.0,70,0.00,,,0.00,meteohub,2013-05-15 08:54:00,
2013-05-15 02:59:00,46.9,38.1,29.79,NW,323,5.0,10.0,71,0.00,,,0.00,meteohub,2013-05-15 08:59:00,
2013-05-15 03:04:00,46.9,38.1,29.79,NW,322,5.0,10.0,71,0.00,,,0.00,meteohub,2013-05-15 09:04:00,
2013-05-15 03:09:00,46.9,38.1,29.79,NNW,338,7.0,10.0,71,0.00,,,0.00,meteohub,2013-05-15 09:09:00,
2013-05-15 03:14:00,46.9,38.1,29.79,NNW,334,5.0,10.0,71,0.00,,,0.00,meteohub,2013-05-15 09:14:00,
2013-05-15 03:19:00,46.9,37.6,29.79,NW,326,8.0,10.0,70,0.00,,,0.00,meteohub,2013-05-15 09:19:00,
2013-05-15 03:24:00,47.1,37.8,29.79,NW,326,3.0,9.0,70,0.00,,,0.00,meteohub,2013-05-15 09:24:00,
2013-05-15 03:29:00,46.9,37.6,29.79,NNW,328,6.0,9.0,70,0.00,,,0.00,meteohub,2013-05-15 09:29:00,
2013-05-15 03:34:00,46.9,38.1,29.79,NNW,330,6.0,9.0,71,0.00,,,0.00,meteohub,2013-05-15 09:34:00,
2013-05-15 03:40:00,46.8,37.9,29.79,NW,326,4.0,8.0,71,0.00,,,0.00,meteohub,2013-05-15 09:40:00,
2013-05-15 03:45:00,46.8,37.9,29.79,NW,321,5.0,8.0,71,0.00,,,0.00,meteohub,2013-05-15 09:45:00,
2013-05-15 03:50:00,46.9,37.6,29.79,NNW,333,4.0,7.0,70,0.00,,,0.00,meteohub,2013-05-15 09:50:00,
2013-05-15 03:55:00,46.9,38.1,29.79,NW,325,6.0,7.0,71,0.00,,,0.00,meteohub,2013-05-15 09:55:00,
2013-05-15 04:00:00,47.1,37.8,29.79,NW,305,5.0,7.0,70,0.00,,,0.00,meteohub,2013-05-15 10:00:00,
2013-05-15 04:05:00,47.5,37.4,29.79,NW,321,5.0,7.0,68,0.00,,,0.00,meteohub,2013-05-15 10:05:00,
2013-05-15 04:10:00,47.3,37.2,29.79,NNW,337,6.0,9.0,68,0.00,,,0.00,meteohub,2013-05-15 10:10:00,
2013-05-15 04:15:00,47.5,37.0,29.79,North,0,6.0,9.0,67,0.00,,,0.00,meteohub,2013-05-15 10:15:00,
2013-05-15 04:20:00,47.5,37.0,29.79,NNW,347,4.0,7.0,67,0.00,,,0.00,meteohub,2013-05-15 10:20:00,
2013-05-15 04:25:00,47.1,36.7,29.79,NW,326,5.0,7.0,67,0.00,,,0.00,meteohub,2013-05-15 10:25:00,
2013-05-15 04:30:00,46.8,36.7,29.79,NNW,333,2.0,7.0,68,0.00,,,0.00,meteohub,2013-05-15 10:30:00,
2013-05-15 04:35:00,46.8,36.7,29.80,North,349,3.0,6.0,68,0.00,,,0.00,meteohub,2013-05-15 10:35:00,
2013-05-15 04:40:00,46.6,36.5,29.80,NNW,336,4.0,5.0,68,0.00,,,0.00,meteohub,2013-05-15 10:40:00,
2013-05-15 04:46:00,46.4,36.5,29.80,WNW,287,4.0,5.0,68,0.00,,,0.00,meteohub,2013-05-15 10:46:00,
2013-05-15 04:51:00,46.4,36.5,29.80,NW,319,6.0,8.0,68,0.00,,,0.00,meteohub,2013-05-15 10:51:00,
2013-05-15 04:56:00,46.4,36.5,29.80,NW,321,6.0,9.0,68,0.00,,,0.00,meteohub,2013-05-15 10:56:00,
2013-05-15 05:01:00,46.2,36.3,29.80,NW,312,5.0,9.0,68,0.00,,,0.00,meteohub,2013-05-15 11:01:00,
2013-05-15 05:07:00,46.0,36.1,29.80,NNW,334,4.0,9.0,68,0.00,,,0.00,meteohub,2013-05-15 11:07:00,
2013-05-15 05:12:00,45.9,36.3,29.80,NNW,329,4.0,8.0,69,0.00,,,0.00,meteohub,2013-05-15 11:12:00,
2013-05-15 05:17:00,45.7,36.1,29.80,NW,326,5.0,8.0,69,0.00,,,0.00,meteohub,2013-05-15 11:17:00,
2013-05-15 05:22:00,45.5,36.3,29.80,NW,319,3.0,7.0,70,0.00,,,0.00,meteohub,2013-05-15 11:22:00,
2013-05-15 05:27:00,45.3,36.1,29.80,NNW,328,5.0,7.0,70,0.00,,,0.00,meteohub,2013-05-15 11:27:00,
2013-05-15 05:32:00,45.1,36.3,29.80,NW,314,6.0,7.0,71,0.00,,,0.00,meteohub,2013-05-15 11:32:00,
2013-05-15 05:37:00,45.1,36.0,29.80,NW,324,3.0,7.0,70,0.00,,,0.00,meteohub,2013-05-15 11:37:00,
2013-05-15 05:42:00,45.1,36.0,29.80,WNW,298,2.0,7.0,70,0.00,,,0.00,meteohub,2013-05-15 11:42:00,
2013-05-15 05:48:00,45.1,36.0,29.80,NNW,329,2.0,7.0,70,0.00,,,0.00,meteohub,2013-05-15 11:48:00,
2013-05-15 05:53:00,45.5,36.0,29.80,NW,322,4.0,6.0,69,0.00,,,0.00,meteohub,2013-05-15 11:53:00,
2013-05-15 05:59:00,45.7,35.8,29.80,NNW,331,3.0,6.0,68,0.00,,,0.00,meteohub,2013-05-15 11:59:00,
2013-05-15 06:04:00,45.9,36.0,29.80,NW,313,4.0,8.0,68,0.00,,,0.00,meteohub,2013-05-15 12:04:00,
2013-05-15 06:10:00,45.9,36.0,29.80,NW,326,3.0,8.0,68,0.00,,,0.00,meteohub,2013-05-15 12:10:00,
2013-05-15 06:15:00,46.2,36.3,29.80,North,357,1.0,6.0,68,0.00,,,0.00,meteohub,2013-05-15 12:15:00,
2013-05-15 06:20:00,46.6,36.1,29.80,NNW,333,1.0,6.0,67,0.00,,,0.00,meteohub,2013-05-15 12:20:00,
2013-05-15 06:26:00,46.6,36.1,29.80,NNW,327,3.0,4.0,67,0.00,,,0.00,meteohub,2013-05-15 12:26:00,
2013-05-15 06:32:00,46.8,36.3,29.80,NW,326,4.0,4.0,67,0.00,,,0.00,meteohub,2013-05-15 12:32:00,
2013-05-15 06:37:00,47.3,36.1,29.80,NW,323,4.0,7.0,65,0.00,,,0.00,meteohub,2013-05-15 12:37:00,
2013-05-15 06:43:00,47.5,36.3,29.80,NW,323,4.0,8.0,65,0.00,,,0.00,meteohub,2013-05-15 12:43:00,
2013-05-15 06:48:00,47.3,36.5,29.80,NNW,328,4.0,8.0,66,0.00,,,0.00,meteohub,2013-05-15 12:48:00,
2013-05-15 06:54:00,47.5,36.3,29.81,NNW,331,5.0,8.0,65,0.00,,,0.00,meteohub,2013-05-15 12:54:00,
2013-05-15 06:59:00,47.7,36.9,29.81,NW,312,5.0,8.0,66,0.00,,,0.00,meteohub,2013-05-15 12:59:00,
2013-05-15 07:04:00,47.8,36.7,29.81,NNW,347,5.0,8.0,65,0.00,,,0.00,meteohub,2013-05-15 13:04:00,
2013-05-15 07:09:00,48.0,36.5,29.80,NW,318,6.0,7.0,64,0.00,,,0.00,meteohub,2013-05-15 13:09:00,
2013-05-15 07:14:00,48.0,36.9,29.80,North,355,5.0,7.0,65,0.00,,,0.00,meteohub,2013-05-15 13:14:00,
2013-05-15 07:20:00,48.6,37.4,29.80,NNE,15,4.0,7.0,65,0.00,,,0.00,meteohub,2013-05-15 13:20:00,
2013-05-15 07:25:00,48.4,36.7,29.80,NW,326,5.0,8.0,64,0.00,,,0.00,meteohub,2013-05-15 13:25:00,
2013-05-15 07:30:00,48.4,37.2,29.80,NW,325,4.0,10.0,65,0.00,,,0.00,meteohub,2013-05-15 13:30:00,
2013-05-15 07:36:00,48.6,36.5,29.80,NNW,340,5.0,10.0,63,0.00,,,0.00,meteohub,2013-05-15 13:36:00,
2013-05-15 07:41:00,48.6,36.1,29.80,NNW,328,4.0,8.0,62,0.00,,,0.00,meteohub,2013-05-15 13:41:00,
2013-05-15 07:46:00,48.7,36.3,29.80,North,7,4.0,8.0,62,0.00,,,0.00,meteohub,2013-05-15 13:46:00,
2013-05-15 07:52:00,48.7,36.3,29.80,NW,319,4.0,8.0,62,0.00,,,0.00,meteohub,2013-05-15 13:52:00,
2013-05-15 07:57:00,49.1,36.7,29.80,NNE,15,4.0,8.0,62,0.00,,,0.00,meteohub,2013-05-15 13:57:00,
2013-05-15 08:02:00,49.3,36.9,29.80,NW,323,4.0,8.0,62,0.00,,,0.00,meteohub,2013-05-15 14:02:00,
2013-05-15 08:07:00,50.0,36.7,29.80,NNE,21,1.0,8.0,60,0.00,,,0.00,meteohub,2013-05-15 14:07:00,
2013-05-15 08:12:00,50.5,37.2,29.80,NW,318,2.0,8.0,60,0.00,,,0.00,meteohub,2013-05-15 14:12:00,
2013-05-15 08:17:00,51.4,36.7,29.79,WNW,283,0.0,5.0,57,0.00,,,0.00,meteohub,2013-05-15 14:17:00,
2013-05-15 08:22:00,52.3,37.6,29.79,ENE,72,3.0,3.0,57,0.00,,,0.00,meteohub,2013-05-15 14:22:00,
2013-05-15 08:28:00,53.2,37.0,29.79,NNW,332,2.0,5.0,54,0.00,,,0.00,meteohub,2013-05-15 14:28:00,
2013-05-15 08:34:00,53.4,38.1,29.79,NNE,27,4.0,5.0,56,0.00,,,0.00,meteohub,2013-05-15 14:34:00,
2013-05-15 08:40:00,54.7,36.9,29.80,East,84,0.0,5.0,51,0.00,,,0.00,meteohub,2013-05-15 14:40:00,
2013-05-15 08:45:00,55.4,36.5,29.79,SE,134,2.0,4.0,49,0.00,,,0.00,meteohub,2013-05-15 14:45:00,
2013-05-15 08:51:00,55.6,36.7,29.79,SSE,150,4.0,6.0,49,0.00,,,0.00,meteohub,2013-05-15 14:51:00,
2013-05-15 08:56:00,55.4,36.5,29.79,ESE,105,5.0,6.0,49,0.00,,,0.00,meteohub,2013-05-15 14:56:00,
2013-05-15 09:01:00,55.6,37.2,29.79,SSE,160,5.0,6.0,50,0.00,,,0.00,meteohub,2013-05-15 15:01:00,
2013-05-15 09:06:00,55.9,37.0,29.79,ESE,114,3.0,6.0,49,0.00,,,0.00,meteohub,2013-05-15 15:06:00,
2013-05-15 09:12:00,56.5,37.6,29.79,ESE,117,5.0,6.0,49,0.00,,,0.00,meteohub,2013-05-15 15:12:00,
2013-05-15 09:17:00,56.7,37.8,29.79,East,96,4.0,6.0,49,0.00,,,0.00,meteohub,2013-05-15 15:17:00,
2013-05-15 09:22:00,57.4,36.7,29.79,ENE,77,3.0,5.0,46,0.00,,,0.00,meteohub,2013-05-15 15:22:00,
2013-05-15 09:27:00,57.9,37.8,29.79,ESE,109,5.0,5.0,47,0.00,,,0.00,meteohub,2013-05-15 15:27:00,
2013-05-15 09:32:00,58.3,37.0,29.79,NE,44,6.0,6.0,45,0.00,,,0.00,meteohub,2013-05-15 15:32:00,
2013-05-15 09:37:00,58.3,36.5,29.78,West,280,1.0,6.0,44,0.00,,,0.00,meteohub,2013-05-15 15:37:00,
2013-05-15 09:42:00,59.2,36.1,29.78,WSW,255,0.0,6.0,42,0.00,,,0.00,meteohub,2013-05-15 15:42:00,
2013-05-15 09:47:00,59.5,35.8,29.78,NNE,24,2.0,6.0,41,0.00,,,0.00,meteohub,2013-05-15 15:47:00,
2013-05-15 09:53:00,60.4,36.0,29.78,NW,316,3.0,5.0,40,0.00,,,0.00,meteohub,2013-05-15 15:53:00,
2013-05-15 09:58:00,60.8,35.6,29.77,NW,304,4.0,6.0,39,0.00,,,0.00,meteohub,2013-05-15 15:58:00,
2013-05-15 10:04:00,61.2,35.4,29.77,NE,36,5.0,6.0,38,0.00,,,0.00,meteohub,2013-05-15 16:04:00,
2013-05-15 10:09:00,61.3,35.6,29.77,NNW,344,5.0,6.0,38,0.00,,,0.00,meteohub,2013-05-15 16:09:00,
2013-05-15 10:14:00,61.5,35.6,29.76,NNE,13,8.0,10.0,38,0.00,,,0.00,meteohub,2013-05-15 16:14:00,
2013-05-15 10:20:00,61.9,36.7,29.76,North,351,4.0,10.0,39,0.00,,,0.00,meteohub,2013-05-15 16:20:00,
2013-05-15 10:25:00,63.1,37.0,29.76,NW,322,6.0,10.0,38,0.00,,,0.00,meteohub,2013-05-15 16:25:00,
2013-05-15 10:30:00,63.1,35.8,29.75,NW,308,5.0,13.0,36,0.00,,,0.00,meteohub,2013-05-15 16:30:00,
2013-05-15 10:36:00,63.5,35.4,29.75,NNW,332,11.0,13.0,35,0.00,,,0.00,meteohub,2013-05-15 16:36:00,
2013-05-15 10:41:00,64.0,36.5,29.75,NE,35,9.0,13.0,36,0.00,,,0.00,meteohub,2013-05-15 16:41:00,
2013-05-15 10:47:00,64.2,34.5,29.75,NW,324,8.0,12.0,33,0.00,,,0.00,meteohub,2013-05-15 16:47:00,
2013-05-15 10:52:00,64.2,34.5,29.75,NW,308,6.0,12.0,33,0.00,,,0.00,meteohub,2013-05-15 16:52:00,
2013-05-15 10:57:00,65.3,33.8,29.75,NW,321,8.0,11.0,31,0.00,,,0.00,meteohub,2013-05-15 16:57:00,
2013-05-15 11:03:00,65.7,36.5,29.75,NNW,332,6.0,13.0,34,0.00,,,0.00,meteohub,2013-05-15 17:03:00,
2013-05-15 11:08:00,65.7,32.5,29.75,NNW,332,5.0,13.0,29,0.00,,,0.00,meteohub,2013-05-15 17:08:00,
2013-05-15 11:13:00,65.1,32.9,29.74,NNW,338,7.0,15.0,30,0.00,,,0.00,meteohub,2013-05-15 17:13:00,
2013-05-15 11:19:00,65.7,35.8,29.74,NW,326,9.0,15.0,33,0.00,,,0.00,meteohub,2013-05-15 17:19:00,
2013-05-15 11:24:00,65.8,32.7,29.74,NNW,332,9.0,15.0,29,0.00,,,0.00,meteohub,2013-05-15 17:24:00,
2013-05-15 11:29:00,66.0,34.5,29.74,NW,304,4.0,14.0,31,0.00,,,0.00,meteohub,2013-05-15 17:29:00,
2013-05-15 11:34:00,65.8,33.6,29.74,North,352,3.0,14.0,30,0.00,,,0.00,meteohub,2013-05-15 17:34:00,
2013-05-15 11:39:00,67.3,34.0,29.73,NW,304,0.0,14.0,29,0.00,,,0.00,meteohub,2013-05-15 17:39:00,
2013-05-15 11:45:00,68.5,31.3,29.73,WSW,245,4.0,8.0,25,0.00,,,0.00,meteohub,2013-05-15 17:45:00,
2013-05-15 11:50:00,68.5,31.3,29.73,ESE,117,1.0,8.0,25,0.00,,,0.00,meteohub,2013-05-15 17:50:00,
2013-05-15 11:56:00,68.2,32.0,29.73,East,98,5.0,12.0,26,0.00,,,0.00,meteohub,2013-05-15 17:56:00,
2013-05-15 12:01:00,68.4,33.1,29.73,ENE,64,5.0,12.0,27,0.00,,,0.00,meteohub,2013-05-15 18:01:00,
2013-05-15 12:07:00,67.3,34.7,29.73,SSE,167,8.0,12.0,30,0.00,,,0.00,meteohub,2013-05-15 18:07:00,
2013-05-15 12:12:00,64.4,34.7,29.73,SE,133,14.0,19.0,33,0.00,,,0.00,meteohub,2013-05-15 18:12:00,
2013-05-15 12:17:00,63.0,35.6,29.73,SSE,148,11.0,19.0,36,0.00,,,0.00,meteohub,2013-05-15 18:17:00,
2013-05-15 12:22:00,62.1,34.9,29.73,SE,139,9.0,19.0,36,0.00,,,0.00,meteohub,2013-05-15 18:22:00,
2013-05-15 12:28:00,62.1,35.4,29.73,East,91,12.0,16.0,37,0.00,,,0.00,meteohub,2013-05-15 18:28:00,
2013-05-15 12:33:00,61.9,34.7,29.73,SE,132,6.0,13.0,36,0.00,,,0.00,meteohub,2013-05-15 18:33:00,
2013-05-15 12:39:00,61.5,35.1,29.73,SE,128,4.0,18.0,37,0.00,,,0.00,meteohub,2013-05-15 18:39:00,
2013-05-15 12:44:00,61.5,35.1,29.73,SE,137,8.0,18.0,37,0.00,,,0.00,meteohub,2013-05-15 18:44:00,
2013-05-15 12:49:00,61.2,36.0,29.73,SSE,155,10.0,18.0,39,0.00,,,0.00,meteohub,2013-05-15 18:49:00,
2013-05-15 12:54:00,61.0,35.8,29.73,South,170,3.0,16.0,39,0.00,,,0.00,meteohub,2013-05-15 18:54:00,
2013-05-15 12:59:00,60.8,36.9,29.73,SW,231,5.0,15.0,41,0.00,,,0.00,meteohub,2013-05-15 18:59:00,
2013-05-15 13:05:00,61.0,37.0,29.73,SSE,162,10.0,15.0,41,0.00,,,0.00,meteohub,2013-05-15 19:05:00,
2013-05-15 13:10:00,61.0,37.0,29.73,SSW,203,4.0,12.0,41,0.00,,,0.00,meteohub,2013-05-15 19:10:00,
2013-05-15 13:16:00,61.2,36.7,29.73,NW,311,4.0,12.0,40,0.00,,,0.00,meteohub,2013-05-15 19:16:00,
2013-05-15 13:21:00,61.3,36.9,29.73,South,183,4.0,14.0,40,0.00,,,0.00,meteohub,2013-05-15 19:21:00,
2013-05-15 13:27:00,61.2,36.7,29.73,SSW,205,9.0,15.0,40,0.00,,,0.00,meteohub,2013-05-15 19:27:00,
2013-05-15 13:32:00,61.3,36.9,29.73,SW,225,3.0,15.0,40,0.00,,,0.00,meteohub,2013-05-15 19:32:00,
2013-05-15 13:37:00,61.5,37.6,29.73,SSW,212,5.0,15.0,41,0.00,,,0.00,meteohub,2013-05-15 19:37:00,
2013-05-15 13:42:00,61.7,36.5,29.74,SW,222,4.0,14.0,39,0.00,,,0.00,meteohub,2013-05-15 19:42:00,
2013-05-15 13:47:00,61.5,35.6,29.74,SSW,203,3.0,14.0,38,0.00,,,0.00,meteohub,2013-05-15 19:47:00,
2013-05-15 13:52:00,61.7,35.2,29.74,SSW,212,3.0,14.0,37,0.00,,,0.00,meteohub,2013-05-15 19:52:00,
2013-05-15 13:57:00,61.9,34.7,29.74,NW,323,6.0,11.0,36,0.00,,,0.00,meteohub,2013-05-15 19:57:00,
2013-05-15 14:02:00,60.1,36.3,29.73,WNW,283,8.0,11.0,41,0.00,,,0.00,meteohub,2013-05-15 20:02:00,
2013-05-15 14:07:00,58.6,36.9,29.74,NW,318,6.0,16.0,44,0.00,,,0.00,meteohub,2013-05-15 20:07:00,
2013-05-15 14:12:00,57.9,36.7,29.73,NW,321,9.0,18.0,45,0.00,,,0.00,meteohub,2013-05-15 20:12:00,
2013-05-15 14:17:00,57.9,37.2,29.74,NW,319,6.0,18.0,46,0.00,,,0.00,meteohub,2013-05-15 20:17:00,
2013-05-15 14:22:00,57.6,37.9,29.74,NW,326,5.0,18.0,48,0.00,,,0.00,meteohub,2013-05-15 20:22:00,
2013-05-15 14:30:00,57.2,38.3,29.74,NNW,334,7.0,18.0,49,0.00,,,0.00,meteohub,2013-05-15 20:30:00,
2013-05-15 14:36:00,57.0,38.5,29.74,NW,326,8.0,19.0,50,0.00,,,0.00,meteohub,2013-05-15 20:36:00,
2013-05-15 14:42:00,56.8,38.5,29.74,NW,308,18.0,19.0,50,0.00,,,0.00,meteohub,2013-05-15 20:42:00,
2013-05-15 14:47:00,56.7,40.3,29.74,NNE,20,15.0,19.0,54,0.00,,,0.00,meteohub,2013-05-15 20:47:00,
2013-05-15 14:52:00,55.6,40.6,29.75,NNW,329,12.0,28.0,57,0.00,,,0.00,meteohub,2013-05-15 20:52:00,
2013-05-15 14:57:00,55.6,41.5,29.75,NNW,340,13.0,28.0,59,0.00,,,0.00,meteohub,2013-05-15 20:57:00,
2013-05-15 15:02:00,55.8,41.2,29.75,NNW,327,9.0,28.0,58,0.00,,,0.00,meteohub,2013-05-15 21:02:00,
2013-05-15 15:07:00,55.2,41.2,29.75,NNW,345,15.0,23.0,59,0.00,,,0.00,meteohub,2013-05-15 21:07:00,
2013-05-15 15:12:00,55.2,40.6,29.75,NNE,15,13.0,23.0,58,0.00,,,0.00,meteohub,2013-05-15 21:12:00,
2013-05-15 15:17:00,55.2,40.6,29.75,NW,323,8.0,23.0,58,0.00,,,0.00,meteohub,2013-05-15 21:17:00,
2013-05-15 15:22:00,55.2,40.3,29.74,North,356,16.0,22.0,57,0.00,,,0.00,meteohub,2013-05-15 21:22:00,
2013-05-15 15:27:00,55.6,41.5,29.74,NW,311,14.0,20.0,59,0.00,,,0.00,meteohub,2013-05-15 21:27:00,
2013-05-15 15:32:00,55.8,41.7,29.74,NNW,336,11.0,19.0,59,0.00,,,0.00,meteohub,2013-05-15 21:32:00,
2013-05-15 15:37:00,55.9,42.6,29.74,NNW,343,10.0,18.0,61,0.00,,,0.00,meteohub,2013-05-15 21:37:00,
2013-05-15 15:42:00,56.1,42.4,29.73,North,1,14.0,18.0,60,0.00,,,0.00,meteohub,2013-05-15 21:42:00,
2013-05-15 15:47:00,56.5,41.9,29.73,NW,326,12.0,20.0,58,0.00,,,0.00,meteohub,2013-05-15 21:47:00,
2013-05-15 15:52:00,56.8,43.2,29.73,North,9,8.0,23.0,60,0.00,,,0.00,meteohub,2013-05-15 21:52:00,
2013-05-15 15:58:00,56.8,42.3,29.73,NNW,338,9.0,23.0,58,0.00,,,0.00,meteohub,2013-05-15 21:58:00,
2013-05-15 16:03:00,57.0,41.0,29.73,NNW,346,16.0,23.0,55,0.00,,,0.00,meteohub,2013-05-15 22:03:00,
2013-05-15 16:08:00,57.4,42.3,29.73,NNE,13,11.0,21.0,57,0.00,,,0.00,meteohub,2013-05-15 22:08:00,
2013-05-15 16:14:00,57.4,42.3,29.73,NNW,327,17.0,21.0,57,0.00,,,0.00,meteohub,2013-05-15 22:14:00,
2013-05-15 16:19:00,57.0,41.9,29.73,NNW,340,8.0,20.0,57,0.00,,,0.00,meteohub,2013-05-15 22:19:00,
2013-05-15 16:25:00,57.0,39.6,29.73,West,267,8.0,20.0,52,0.00,,,0.00,meteohub,2013-05-15 22:25:00,
2013-05-15 16:31:00,57.0,39.6,29.73,NW,316,13.0,19.0,52,0.00,,,0.00,meteohub,2013-05-15 22:31:00,
2013-05-15 16:36:00,56.8,39.4,29.74,NNE,19,10.0,19.0,52,0.00,,,0.00,meteohub,2013-05-15 22:36:00,
2013-05-15 16:42:00,56.5,40.1,29.75,NW,316,20.0,20.0,54,0.00,,,0.00,meteohub,2013-05-15 22:42:00,
2013-05-15 16:47:00,56.3,39.4,29.75,NW,320,11.0,20.0,53,0.00,,,0.00,meteohub,2013-05-15 22:47:00,
2013-05-15 16:52:00,56.1,39.7,29.76,NNW,334,8.0,20.0,54,0.00,,,0.00,meteohub,2013-05-15 22:52:00,
2013-05-15 16:57:00,55.9,39.6,29.76,NNW,329,8.0,20.0,54,0.00,,,0.00,meteohub,2013-05-15 22:57:00,
2013-05-15 17:02:00,55.9,40.5,29.77,NNW,338,6.0,18.0,56,0.00,,,0.00,meteohub,2013-05-15 23:02:00,
2013-05-15 17:07:00,55.9,40.5,29.77,NNW,339,8.0,15.0,56,0.00,,,0.00,meteohub,2013-05-15 23:07:00,
2013-05-15 17:12:00,56.1,39.7,29.77,NNE,32,8.0,14.0,54,0.00,,,0.00,meteohub,2013-05-15 23:12:00,
2013-05-15 17:18:00,56.1,39.7,29.77,NNW,329,5.0,12.0,54,0.00,,,0.00,meteohub,2013-05-15 23:18:00,
2013-05-15 17:23:00,56.1,39.7,29.76,NNE,25,5.0,12.0,54,0.00,,,0.00,meteohub,2013-05-15 23:23:00,
2013-05-15 17:28:00,56.1,39.7,29.76,NNE,21,7.0,11.0,54,0.00,,,0.00,meteohub,2013-05-15 23:28:00,
2013-05-15 17:34:00,56.1,39.7,29.76,NNW,334,4.0,11.0,54,0.00,,,0.00,meteohub,2013-05-15 23:34:00,
2013-05-15 17:39:00,55.9,39.6,29.77,NNW,333,4.0,11.0,54,0.00,,,0.00,meteohub,2013-05-15 23:39:00,
2013-05-15 17:44:00,55.8,39.9,29.77,NW,323,2.0,11.0,55,0.00,,,0.00,meteohub,2013-05-15 23:44:00,
2013-05-15 17:50:00,55.6,39.7,29.77,North,353,2.0,6.0,55,0.00,,,0.00,meteohub,2013-05-15 23:50:00,
2013-05-15 17:55:00,55.6,40.1,29.77,SSE,160,4.0,5.0,56,0.00,,,0.00,meteohub,2013-05-15 23:55:00,
2013-05-15 18:01:00,55.2,39.7,29.77,SW,235,9.0,12.0,56,0.00,,,0.00,meteohub,2013-05-16 00:01:00,
2013-05-15 18:07:00,54.9,39.9,29.77,SSW,207,2.0,12.0,57,0.00,,,0.00,meteohub,2013-05-16 00:07:00,
2013-05-15 18:12:00,54.3,39.9,29.77,SW,228,8.0,12.0,58,0.00,,,0.00,meteohub,2013-05-16 00:12:00,
2013-05-15 18:17:00,53.8,40.3,29.78,WSW,255,5.0,12.0,60,0.00,,,0.00,meteohub,2013-05-16 00:17:00,
2013-05-15 18:22:00,53.4,39.9,29.78,NW,312,4.0,12.0,60,0.00,,,0.00,meteohub,2013-05-16 00:22:00,
2013-05-15 18:27:00,53.2,40.1,29.78,SSW,205,5.0,12.0,61,0.00,,,0.00,meteohub,2013-05-16 00:27:00,
2013-05-15 18:32:00,52.7,40.5,29.78,SSW,207,5.0,12.0,63,0.00,,,0.00,meteohub,2013-05-16 00:32:00,
2013-05-15 18:38:00,52.2,40.3,29.78,South,172,7.0,12.0,64,0.00,,,0.00,meteohub,2013-05-16 00:38:00,
2013-05-15 18:43:00,52.0,41.0,29.78,SW,229,4.0,13.0,66,0.00,,,0.00,meteohub,2013-05-16 00:43:00,
2013-05-15 18:48:00,51.3,42.6,29.79,SSE,160,7.0,13.0,72,0.00,,,0.00,meteohub,2013-05-16 00:48:00,
2013-05-15 18:54:00,50.2,43.0,29.79,SSE,151,5.0,13.0,76,0.00,,,0.00,meteohub,2013-05-16 00:54:00,
2013-05-15 18:59:00,49.5,43.2,29.80,SW,228,2.0,10.0,79,0.00,,,0.00,meteohub,2013-05-16 00:59:00,
2013-05-15 19:04:00,48.7,42.3,29.81,NNW,335,5.0,10.0,78,0.01,,,0.01,meteohub,2013-05-16 01:04:00,
2013-05-15 19:09:00,48.4,40.8,29.80,WNW,294,3.0,10.0,75,0.02,,,0.02,meteohub,2013-05-16 01:09:00,
2013-05-15 19:14:00,47.5,41.9,29.79,North,9,3.0,16.0,81,0.02,,,0.02,meteohub,2013-05-16 01:14:00,
2013-05-15 19:20:00,46.9,41.7,29.78,East,86,4.0,16.0,82,0.05,,,0.05,meteohub,2013-05-16 01:20:00,
2013-05-15 19:25:00,46.8,42.4,29.79,WNW,282,2.0,9.0,85,0.06,,,0.06,meteohub,2013-05-16 01:25:00,
2013-05-15 19:31:00,46.4,41.9,29.79,WNW,287,0.0,9.0,84,0.06,,,0.06,meteohub,2013-05-16 01:31:00,
2013-05-15 19:36:00,46.9,41.4,29.78,WSW,242,0.0,5.0,81,0.06,,,0.06,meteohub,2013-05-16 01:36:00,
2013-05-15 19:41:00,47.5,41.0,29.78,WSW,243,0.0,4.0,78,0.06,,,0.06,meteohub,2013-05-16 01:41:00,
2013-05-15 19:46:00,47.8,41.0,29.78,WNW,302,1.0,2.0,77,0.06,,,0.06,meteohub,2013-05-16 01:46:00,
2013-05-15 19:52:00,46.6,41.7,29.78,NW,311,0.0,3.0,83,0.06,,,0.06,meteohub,2013-05-16 01:52:00,
2013-05-15 19:57:00,46.2,41.7,29.78,NW,318,0.0,3.0,84,0.05,,,0.06,meteohub,2013-05-16 01:57:00,
2013-05-15 20:02:00,46.2,42.6,29.78,SW,229,2.0,3.0,87,0.05,,,0.06,meteohub,2013-05-16 02:02:00,
2013-05-15 20:07:00,46.2,42.3,29.78,NW,305,1.0,3.0,86,0.04,,,0.06,meteohub,2013-05-16 02:07:00,
2013-05-15 20:12:00,46.2,42.3,29.78,WNW,290,3.0,3.0,86,0.03,,,0.06,meteohub,2013-05-16 02:12:00,
2013-05-15 20:17:00,46.0,42.4,29.78,WNW,288,1.0,5.0,87,0.02,,,0.06,meteohub,2013-05-16 02:17:00,
2013-05-15 20:22:00,46.0,42.6,29.78,NW,326,2.0,5.0,88,0.00,,,0.06,meteohub,2013-05-16 02:22:00,
2013-05-15 20:27:00,45.7,42.6,29.78,NNW,330,3.0,5.0,89,0.00,,,0.06,meteohub,2013-05-16 02:27:00,
2013-05-15 20:32:00,45.7,42.6,29.78,NW,326,3.0,5.0,89,0.00,,,0.06,meteohub,2013-05-16 02:32:00,
2013-05-15 20:37:00,45.3,42.6,29.78,NNW,335,4.0,6.0,90,0.00,,,0.06,meteohub,2013-05-16 02:37:00,
2013-05-15 20:42:00,45.3,42.6,29.79,NW,318,2.0,6.0,90,0.00,,,0.06,meteohub,2013-05-16 02:42:00,
2013-05-15 20:47:00,45.3,42.3,29.79,NW,312,4.0,5.0,89,0.00,,,0.06,meteohub,2013-05-16 02:47:00,
2013-05-15 20:52:00,45.3,42.3,29.78,NW,318,2.0,5.0,89,0.00,,,0.06,meteohub,2013-05-16 02:52:00,
2013-05-15 20:57:00,45.3,41.9,29.78,NW,314,1.0,5.0,88,0.00,,,0.06,meteohub,2013-05-16 02:57:00,
2013-05-15 21:02:00,45.3,41.9,29.79,WNW,302,1.0,5.0,88,0.00,,,0.06,meteohub,2013-05-16 03:02:00,
2013-05-15 21:07:00,45.3,41.7,29.79,WNW,295,3.0,4.0,87,0.00,,,0.06,meteohub,2013-05-16 03:07:00,
2013-05-15 21:12:00,45.7,41.7,29.79,WNW,293,2.0,4.0,86,0.00,,,0.06,meteohub,2013-05-16 03:12:00,
2013-05-15 21:17:00,45.7,41.4,29.79,NW,310,2.0,4.0,85,0.00,,,0.06,meteohub,2013-05-16 03:17:00,
2013-05-15 21:23:00,45.3,41.4,29.80,West,274,2.0,5.0,86,0.00,,,0.06,meteohub,2013-05-16 03:23:00,
2013-05-15 21:28:00,45.9,41.0,29.80,WNW,293,1.0,5.0,83,0.00,,,0.06,meteohub,2013-05-16 03:28:00,
2013-05-15 21:33:00,45.9,41.4,29.81,East,89,0.0,5.0,84,0.00,,,0.06,meteohub,2013-05-16 03:33:00,
2013-05-15 21:38:00,45.7,41.2,29.81,WNW,288,0.0,3.0,84,0.00,,,0.06,meteohub,2013-05-16 03:38:00,
2013-05-15 21:43:00,45.5,41.0,29.81,WNW,288,0.0,2.0,84,0.00,,,0.06,meteohub,2013-05-16 03:43:00,
2013-05-15 21:48:00,45.3,41.0,29.81,WNW,288,0.0,1.0,85,0.00,,,0.06,meteohub,2013-05-16 03:48:00,
2013-05-15 21:53:00,45.1,40.8,29.81,NW,326,4.0,4.0,85,0.00,,,0.06,meteohub,2013-05-16 03:53:00,
2013-05-15 21:58:00,45.1,41.2,29.80,NNW,331,3.0,4.0,86,0.00,,,0.06,meteohub,2013-05-16 03:58:00,
2013-05-15 22:01:00,45.1,41.2,29.81,NW,318,2.0,5.0,86,0.00,,,0.06,meteohub,2013-05-16 04:01:00,
2013-05-15 22:02:00,45.0,41.0,29.81,NW,318,3.0,5.0,86,0.00,,,0.06,meteohub,2013-05-16 04:02:00,
2013-05-15 22:05:00,44.8,41.2,29.81,NNW,329,4.0,5.0,87,0.00,,,0.06,meteohub,2013-05-16 04:05:00,
2013-05-15 22:10:00,44.8,41.2,29.81,NW,322,6.0,6.0,87,0.00,,,0.06,meteohub,2013-05-16 04:10:00,
2013-05-15 22:15:00,44.8,41.4,29.81,NW,311,5.0,6.0,88,0.00,,,0.06,meteohub,2013-05-16 04:15:00,
2013-05-15 22:20:00,44.6,41.5,29.81,NNW,331,5.0,6.0,89,0.00,,,0.06,meteohub,2013-05-16 04:20:00,
2013-05-15 22:25:00,44.2,41.5,29.81,NW,318,2.0,6.0,90,0.00,,,0.06,meteohub,2013-05-16 04:25:00,
2013-05-15 22:30:00,44.1,41.0,29.81,NNW,328,2.0,6.0,89,0.00,,,0.06,meteohub,2013-05-16 04:30:00,
2013-05-15 22:35:00,43.9,40.8,29.81,NW,324,2.0,6.0,89,0.00,,,0.06,meteohub,2013-05-16 04:35:00,
2013-05-15 22:40:00,44.1,41.0,29.80,NW,323,3.0,5.0,89,0.00,,,0.06,meteohub,2013-05-16 04:40:00,
2013-05-15 22:45:00,44.1,41.0,29.81,NW,319,1.0,5.0,89,0.00,,,0.06,meteohub,2013-05-16 04:45:00,
2013-05-15 22:50:00,44.2,41.0,29.80,NW,326,2.0,4.0,88,0.00,,,0.06,meteohub,2013-05-16 04:50:00,
2013-05-15 22:55:00,44.2,41.0,29.80,WNW,301,2.0,3.0,88,0.00,,,0.06,meteohub,2013-05-16 04:55:00,
2013-05-15 23:00:00,44.4,40.8,29.80,NW,323,1.0,3.0,87,0.00,,,0.06,meteohub,2013-05-16 05:00:00,
2013-05-15 23:05:00,43.9,40.6,29.80,NW,316,2.0,2.0,88,0.00,,,0.06,meteohub,2013-05-16 05:05:00,
2013-05-15 23:10:00,43.5,40.5,29.80,NW,326,4.0,5.0,89,0.00,,,0.06,meteohub,2013-05-16 05:10:00,
2013-05-15 23:15:00,43.0,39.7,29.80,NNW,328,7.0,9.0,88,0.00,,,0.06,meteohub,2013-05-16 05:15:00,
2013-05-15 23:20:00,43.0,39.9,29.80,NNW,329,5.0,9.0,89,0.00,,,0.06,meteohub,2013-05-16 05:20:00,
2013-05-15 23:25:00,42.6,39.6,29.80,NW,316,5.0,9.0,89,0.00,,,0.06,meteohub,2013-05-16 05:25:00,
2013-05-15 23:30:00,42.6,39.6,29.80,NW,319,3.0,8.0,89,0.00,,,0.06,meteohub,2013-05-16 05:30:00,
2013-05-15 23:35:00,42.4,39.4,29.80,WNW,301,2.0,6.0,89,0.00,,,0.06,meteohub,2013-05-16 05:35:00,
2013-05-15 23:41:00,43.0,39.4,29.80,WNW,302,3.0,6.0,87,0.00,,,0.06,meteohub,2013-05-16 05:41:00,
2013-05-15 23:46:00,43.2,39.6,29.80,WNW,296,3.0,5.0,87,0.00,,,0.06,meteohub,2013-05-16 05:46:00,
2013-05-15 23:51:00,43.5,39.6,29.80,NW,314,2.0,5.0,86,0.00,,,0.06,meteohub,2013-05-16 05:51:00,
2013-05-15 23:56:00,43.9,39.9,29.80,NW,326,2.0,5.0,86,0.00,,,0.06,meteohub,2013-05-16 05:56:00,